Year,Month,Day,Hour,Minute,Value (Times are PST for temperature in C)
2017,05,15,00,00,8.80
2017,05,15,00,01,8.80
2017,05,15,00,02,8.80
2017,05,15,00,03,8.80
2017,05,15,00,04,8.80
2017,05,15,00,05,8.80
2017,05,15,00,06,8.80
2017,05,15,00,07,8.80
2017,05,15,00,08,8.80
2017,05,15,00,09,8.80
2017,05,15,00,10,8.80
2017,05,15,00,11,8.80
2017,05,15,00,12,8.80
2017,05,15,00,13,8.80
2017,05,15,00,14,8.80
2017,05,15,00,15,8.70
2017,05,15,00,16,8.70
2017,05,15,00,17,8.70
2017,05,15,00,18,8.70
2017,05,15,00,19,8.70
2017,05,15,00,20,8.70
2017,05,15,00,21,8.70
2017,05,15,00,22,8.70
2017,05,15,00,23,8.70
2017,05,15,00,24,8.70
2017,05,15,00,25,8.70
2017,05,15,00,26,8.70
2017,05,15,00,27,8.70
2017,05,15,00,28,8.70
2017,05,15,00,29,8.70
2017,05,15,00,30,8.70
2017,05,15,00,31,8.70
2017,05,15,00,32,8.70
2017,05,15,00,33,8.70
2017,05,15,00,34,8.70
2017,05,15,00,35,8.70
2017,05,15,00,36,8.70
2017,05,15,00,37,8.70
2017,05,15,00,38,8.70
2017,05,15,00,39,8.70
2017,05,15,00,40,8.70
2017,05,15,00,41,8.70
2017,05,15,00,42,8.70
2017,05,15,00,43,8.70
2017,05,15,00,44,8.70
2017,05,15,00,45,8.70
2017,05,15,00,46,8.70
2017,05,15,00,47,8.70
2017,05,15,00,48,8.70
2017,05,15,00,49,8.70
2017,05,15,00,50,8.80
2017,05,15,00,51,8.80
2017,05,15,00,52,8.80
2017,05,15,00,53,8.80
2017,05,15,00,54,8.80
2017,05,15,00,55,8.80
2017,05,15,00,56,8.90
2017,05,15,00,57,8.90
2017,05,15,00,58,8.90
2017,05,15,00,59,8.90
2017,05,15,01,00,8.90
2017,05,15,01,01,8.90
2017,05,15,01,02,9.00
2017,05,15,01,03,9.00
2017,05,15,01,04,9.00
2017,05,15,01,05,9.00
2017,05,15,01,06,9.00
2017,05,15,01,07,9.00
2017,05,15,01,08,9.00
2017,05,15,01,09,8.90
2017,05,15,01,10,8.90
2017,05,15,01,11,8.90
2017,05,15,01,12,8.90
2017,05,15,01,13,8.90
2017,05,15,01,14,8.90
2017,05,15,01,15,8.90
2017,05,15,01,16,8.90
2017,05,15,01,17,8.90
2017,05,15,01,18,8.90
2017,05,15,01,19,8.90
2017,05,15,01,20,8.80
2017,05,15,01,21,8.80
2017,05,15,01,22,8.80
2017,05,15,01,23,8.80
2017,05,15,01,24,8.80
2017,05,15,01,25,8.80
2017,05,15,01,26,8.80
2017,05,15,01,27,8.80
2017,05,15,01,28,8.80
2017,05,15,01,29,8.80
2017,05,15,01,30,8.80
2017,05,15,01,31,8.70
2017,05,15,01,32,8.70
2017,05,15,01,33,8.70
2017,05,15,01,34,8.70
2017,05,15,01,35,8.70
2017,05,15,01,36,8.70
2017,05,15,01,37,8.70
2017,05,15,01,38,8.70
2017,05,15,01,39,8.70
2017,05,15,01,40,8.70
2017,05,15,01,41,8.70
2017,05,15,01,42,8.70
2017,05,15,01,43,8.70
2017,05,15,01,44,8.70
2017,05,15,01,45,8.70
2017,05,15,01,46,8.70
2017,05,15,01,47,8.70
2017,05,15,01,48,8.70
2017,05,15,01,49,8.70
2017,05,15,01,50,8.70
2017,05,15,01,51,8.70
2017,05,15,01,52,8.70
2017,05,15,01,53,8.70
2017,05,15,01,54,8.60
2017,05,15,01,55,8.60
2017,05,15,01,56,8.60
2017,05,15,01,57,8.60
2017,05,15,01,58,8.60
2017,05,15,01,59,8.60
2017,05,15,02,00,8.60
2017,05,15,02,01,8.60
2017,05,15,02,02,8.60
2017,05,15,02,03,8.60
2017,05,15,02,04,8.60
2017,05,15,02,05,8.60
2017,05,15,02,06,8.60
2017,05,15,02,07,8.60
2017,05,15,02,08,8.60
2017,05,15,02,09,8.50
2017,05,15,02,10,8.50
2017,05,15,02,11,8.50
2017,05,15,02,12,8.50
2017,05,15,02,13,8.50
2017,05,15,02,14,8.50
2017,05,15,02,15,8.50
2017,05,15,02,16,8.50
2017,05,15,02,17,8.50
2017,05,15,02,18,8.50
2017,05,15,02,19,8.50
2017,05,15,02,20,8.50
2017,05,15,02,21,8.50
2017,05,15,02,22,8.50
2017,05,15,02,23,8.50
2017,05,15,02,24,8.50
2017,05,15,02,25,8.50
2017,05,15,02,26,8.40
2017,05,15,02,27,8.40
2017,05,15,02,28,8.40
2017,05,15,02,29,8.40
2017,05,15,02,30,8.40
2017,05,15,02,31,8.40
2017,05,15,02,32,8.50
2017,05,15,02,33,8.50
2017,05,15,02,34,8.50
2017,05,15,02,35,8.50
2017,05,15,02,36,8.60
2017,05,15,02,37,8.60
2017,05,15,02,38,8.60
2017,05,15,02,39,8.60
2017,05,15,02,40,8.60
2017,05,15,02,41,8.60
2017,05,15,02,42,8.60
2017,05,15,02,43,8.70
2017,05,15,02,44,8.70
2017,05,15,02,45,8.70
2017,05,15,02,46,8.70
2017,05,15,02,47,8.70
2017,05,15,02,48,8.70
2017,05,15,02,49,8.70
2017,05,15,02,50,8.70
2017,05,15,02,51,8.70
2017,05,15,02,52,8.70
2017,05,15,02,53,8.70
2017,05,15,02,54,8.80
2017,05,15,02,55,8.80
2017,05,15,02,56,8.80
2017,05,15,02,57,8.80
2017,05,15,02,58,8.80
2017,05,15,02,59,8.80
2017,05,15,03,00,8.80
2017,05,15,03,01,8.80
2017,05,15,03,02,8.80
2017,05,15,03,03,8.80
2017,05,15,03,04,8.70
2017,05,15,03,05,8.70
2017,05,15,03,06,8.70
2017,05,15,03,07,8.70
2017,05,15,03,08,8.70
2017,05,15,03,09,8.70
2017,05,15,03,10,8.70
2017,05,15,03,11,8.70
2017,05,15,03,12,8.70
2017,05,15,03,13,8.70
2017,05,15,03,14,8.70
2017,05,15,03,15,8.70
2017,05,15,03,16,8.70
2017,05,15,03,17,8.70
2017,05,15,03,18,8.70
2017,05,15,03,19,8.70
2017,05,15,03,20,8.70
2017,05,15,03,21,8.70
2017,05,15,03,22,8.70
2017,05,15,03,23,8.60
2017,05,15,03,24,8.60
2017,05,15,03,25,8.60
2017,05,15,03,26,8.60
2017,05,15,03,27,8.60
2017,05,15,03,28,8.60
2017,05,15,03,29,8.60
2017,05,15,03,30,8.60
2017,05,15,03,31,8.50
2017,05,15,03,32,8.50
2017,05,15,03,33,8.50
2017,05,15,03,34,8.50
2017,05,15,03,35,8.50
2017,05,15,03,36,8.50
2017,05,15,03,37,8.40
2017,05,15,03,38,8.40
2017,05,15,03,39,8.40
2017,05,15,03,40,8.40
2017,05,15,03,41,8.40
2017,05,15,03,42,8.40
2017,05,15,03,43,8.40
2017,05,15,03,44,8.40
2017,05,15,03,45,8.40
2017,05,15,03,46,8.40
2017,05,15,03,47,8.40
2017,05,15,03,48,8.40
2017,05,15,03,49,8.50
2017,05,15,03,50,8.50
2017,05,15,03,51,8.50
2017,05,15,03,52,8.50
2017,05,15,03,53,8.50
2017,05,15,03,54,8.50
2017,05,15,03,55,8.50
2017,05,15,03,56,8.50
2017,05,15,03,57,8.50
2017,05,15,03,58,8.50
2017,05,15,03,59,8.50
2017,05,15,04,00,8.60
2017,05,15,04,01,8.60
2017,05,15,04,02,8.60
2017,05,15,04,03,8.60
2017,05,15,04,04,8.60
2017,05,15,04,05,8.70
2017,05,15,04,06,8.70
2017,05,15,04,07,8.70
2017,05,15,04,08,8.70
2017,05,15,04,09,8.80
2017,05,15,04,10,8.80
2017,05,15,04,11,8.80
2017,05,15,04,12,8.80
2017,05,15,04,13,8.80
2017,05,15,04,14,8.80
2017,05,15,04,15,8.90
2017,05,15,04,16,8.90
2017,05,15,04,17,8.90
2017,05,15,04,18,8.90
2017,05,15,04,19,8.90
2017,05,15,04,20,8.90
2017,05,15,04,21,8.90
2017,05,15,04,22,8.90
2017,05,15,04,23,8.90
2017,05,15,04,24,8.90
2017,05,15,04,25,8.90
2017,05,15,04,26,8.90
2017,05,15,04,27,8.90
2017,05,15,04,28,8.90
2017,05,15,04,29,8.90
2017,05,15,04,30,8.90
2017,05,15,04,31,8.90
2017,05,15,04,32,8.90
2017,05,15,04,33,8.90
2017,05,15,04,34,8.90
2017,05,15,04,35,8.90
2017,05,15,04,36,8.90
2017,05,15,04,37,8.90
2017,05,15,04,38,8.90
2017,05,15,04,39,8.90
2017,05,15,04,40,9.00
2017,05,15,04,41,9.00
2017,05,15,04,42,9.00
2017,05,15,04,43,9.00
2017,05,15,04,44,9.00
2017,05,15,04,45,9.00
2017,05,15,04,46,9.00
2017,05,15,04,47,9.00
2017,05,15,04,48,9.00
2017,05,15,04,49,9.00
2017,05,15,04,50,9.00
2017,05,15,04,51,9.00
2017,05,15,04,52,9.00
2017,05,15,04,53,9.00
2017,05,15,04,54,9.00
2017,05,15,04,55,9.00
2017,05,15,04,56,9.00
2017,05,15,04,57,9.00
2017,05,15,04,58,9.00
2017,05,15,04,59,9.00
2017,05,15,05,00,9.00
2017,05,15,05,01,9.00
2017,05,15,05,02,9.00
2017,05,15,05,03,9.00
2017,05,15,05,04,9.00
2017,05,15,05,05,9.10
2017,05,15,05,06,9.10
2017,05,15,05,07,9.10
2017,05,15,05,08,9.10
2017,05,15,05,09,9.10
2017,05,15,05,10,9.10
2017,05,15,05,11,9.10
2017,05,15,05,12,9.10
2017,05,15,05,13,9.10
2017,05,15,05,14,9.10
2017,05,15,05,15,9.10
2017,05,15,05,16,9.20
2017,05,15,05,17,9.20
2017,05,15,05,18,9.20
2017,05,15,05,19,9.20
2017,05,15,05,20,9.20
2017,05,15,05,21,9.20
2017,05,15,05,22,9.20
2017,05,15,05,23,9.20
2017,05,15,05,24,9.20
2017,05,15,05,25,9.20
2017,05,15,05,26,9.20
2017,05,15,05,27,9.20
2017,05,15,05,28,9.20
2017,05,15,05,29,9.30
2017,05,15,05,30,9.30
2017,05,15,05,31,9.30
2017,05,15,05,32,9.30
2017,05,15,05,33,9.30
2017,05,15,05,34,9.30
2017,05,15,05,35,9.30
2017,05,15,05,36,9.30
2017,05,15,05,37,9.30
2017,05,15,05,38,9.30
2017,05,15,05,39,9.30
2017,05,15,05,40,9.30
2017,05,15,05,41,9.30
2017,05,15,05,42,9.30
2017,05,15,05,43,9.30
2017,05,15,05,44,9.30
2017,05,15,05,45,9.30
2017,05,15,05,46,9.30
2017,05,15,05,47,9.30
2017,05,15,05,48,9.30
2017,05,15,05,49,9.30
2017,05,15,05,50,9.30
2017,05,15,05,51,9.30
2017,05,15,05,52,9.30
2017,05,15,05,53,9.30
2017,05,15,05,54,9.30
2017,05,15,05,55,9.30
2017,05,15,05,56,9.30
2017,05,15,05,57,9.30
2017,05,15,05,58,9.30
2017,05,15,05,59,9.30
2017,05,15,06,00,9.30
2017,05,15,06,01,9.30
2017,05,15,06,02,9.30
2017,05,15,06,03,9.30
2017,05,15,06,04,9.30
2017,05,15,06,05,9.30
2017,05,15,06,06,9.30
2017,05,15,06,07,9.30
2017,05,15,06,08,9.30
2017,05,15,06,09,9.30
2017,05,15,06,10,9.30
2017,05,15,06,11,9.30
2017,05,15,06,12,9.30
2017,05,15,06,13,9.20
2017,05,15,06,14,9.30
2017,05,15,06,15,9.20
2017,05,15,06,16,9.20
2017,05,15,06,17,9.20
2017,05,15,06,18,9.20
2017,05,15,06,19,9.30
2017,05,15,06,20,9.30
2017,05,15,06,21,9.30
2017,05,15,06,22,9.30
2017,05,15,06,23,9.30
2017,05,15,06,24,9.30
2017,05,15,06,25,9.30
2017,05,15,06,26,9.30
2017,05,15,06,27,9.30
2017,05,15,06,28,9.30
2017,05,15,06,29,9.30
2017,05,15,06,30,9.30
2017,05,15,06,31,9.30
2017,05,15,06,32,9.30
2017,05,15,06,33,9.30
2017,05,15,06,34,9.30
2017,05,15,06,35,9.30
2017,05,15,06,36,9.30
2017,05,15,06,37,9.30
2017,05,15,06,38,9.30
2017,05,15,06,39,9.30
2017,05,15,06,40,9.30
2017,05,15,06,41,9.30
2017,05,15,06,42,9.30
2017,05,15,06,43,9.30
2017,05,15,06,44,9.30
2017,05,15,06,45,9.30
2017,05,15,06,46,9.30
2017,05,15,06,47,9.30
2017,05,15,06,48,9.40
2017,05,15,06,49,9.30
2017,05,15,06,50,9.40
2017,05,15,06,51,9.40
2017,05,15,06,52,9.40
2017,05,15,06,53,9.40
2017,05,15,06,54,9.40
2017,05,15,06,55,9.40
2017,05,15,06,56,9.40
2017,05,15,06,57,9.40
2017,05,15,06,58,9.40
2017,05,15,06,59,9.40
2017,05,15,07,00,9.40
2017,05,15,07,01,9.40
2017,05,15,07,02,9.40
2017,05,15,07,03,9.50
2017,05,15,07,04,9.50
2017,05,15,07,05,9.50
2017,05,15,07,06,9.50
2017,05,15,07,07,9.50
2017,05,15,07,08,9.60
2017,05,15,07,09,9.60
2017,05,15,07,10,9.60
2017,05,15,07,11,9.60
2017,05,15,07,12,9.60
2017,05,15,07,13,9.60
2017,05,15,07,14,9.70
2017,05,15,07,15,9.70
2017,05,15,07,16,9.70
2017,05,15,07,17,9.70
2017,05,15,07,18,9.70
2017,05,15,07,19,9.70
2017,05,15,07,20,9.70
2017,05,15,07,21,9.70
2017,05,15,07,22,9.80
2017,05,15,07,23,9.80
2017,05,15,07,24,9.80
2017,05,15,07,25,9.80
2017,05,15,07,26,9.80
2017,05,15,07,27,9.80
2017,05,15,07,28,9.80
2017,05,15,07,29,9.80
2017,05,15,07,30,9.80
2017,05,15,07,31,9.80
2017,05,15,07,32,9.80
2017,05,15,07,33,9.80
2017,05,15,07,34,9.80
2017,05,15,07,35,9.90
2017,05,15,07,36,9.90
2017,05,15,07,37,9.90
2017,05,15,07,38,9.90
2017,05,15,07,39,9.90
2017,05,15,07,40,9.90
2017,05,15,07,41,9.90
2017,05,15,07,42,10.00
2017,05,15,07,43,10.00
2017,05,15,07,44,10.00
2017,05,15,07,45,10.00
2017,05,15,07,46,10.10
2017,05,15,07,47,10.10
2017,05,15,07,48,10.10
2017,05,15,07,49,10.10
2017,05,15,07,50,10.10
2017,05,15,07,51,10.10
2017,05,15,07,52,10.10
2017,05,15,07,53,10.10
2017,05,15,07,54,10.10
2017,05,15,07,55,10.10
2017,05,15,07,56,10.10
2017,05,15,07,57,10.10
2017,05,15,07,58,10.00
2017,05,15,07,59,10.00
2017,05,15,08,00,10.00
2017,05,15,08,01,10.00
2017,05,15,08,02,10.00
2017,05,15,08,03,10.00
2017,05,15,08,04,9.90
2017,05,15,08,05,9.90
2017,05,15,08,06,9.90
2017,05,15,08,07,9.90
2017,05,15,08,08,9.90
2017,05,15,08,09,9.90
2017,05,15,08,10,9.90
2017,05,15,08,11,9.90
2017,05,15,08,12,9.90
2017,05,15,08,13,9.90
2017,05,15,08,14,9.90
2017,05,15,08,15,10.00
2017,05,15,08,16,10.00
2017,05,15,08,17,10.00
2017,05,15,08,18,10.00
2017,05,15,08,19,10.10
2017,05,15,08,20,10.10
2017,05,15,08,21,10.10
2017,05,15,08,22,10.10
2017,05,15,08,23,10.10
2017,05,15,08,24,10.10
2017,05,15,08,25,10.20
2017,05,15,08,26,10.20
2017,05,15,08,27,10.20
2017,05,15,08,28,10.20
2017,05,15,08,29,10.20
2017,05,15,08,30,10.20
2017,05,15,08,31,10.30
2017,05,15,08,32,10.30
2017,05,15,08,33,10.30
2017,05,15,08,34,10.30
2017,05,15,08,35,10.30
2017,05,15,08,36,10.30
2017,05,15,08,37,10.40
2017,05,15,08,38,10.40
2017,05,15,08,39,10.40
2017,05,15,08,40,10.40
2017,05,15,08,41,10.40
2017,05,15,08,42,10.40
2017,05,15,08,43,10.50
2017,05,15,08,44,10.50
2017,05,15,08,45,10.50
2017,05,15,08,46,10.50
2017,05,15,08,47,10.40
2017,05,15,08,48,10.50
2017,05,15,08,49,10.40
2017,05,15,08,50,10.40
2017,05,15,08,51,10.40
2017,05,15,08,52,10.40
2017,05,15,08,53,10.40
2017,05,15,08,54,10.40
2017,05,15,08,55,10.40
2017,05,15,08,56,10.40
2017,05,15,08,57,10.30
2017,05,15,08,58,10.30
2017,05,15,08,59,10.30
2017,05,15,09,00,10.30
2017,05,15,09,01,10.30
2017,05,15,09,02,10.30
2017,05,15,09,03,10.30
2017,05,15,09,04,10.30
2017,05,15,09,05,10.40
2017,05,15,09,06,10.40
2017,05,15,09,07,10.40
2017,05,15,09,08,10.40
2017,05,15,09,09,10.40
2017,05,15,09,10,10.40
2017,05,15,09,11,10.40
2017,05,15,09,12,10.40
2017,05,15,09,13,10.40
2017,05,15,09,14,10.40
2017,05,15,09,15,10.50
2017,05,15,09,16,10.50
2017,05,15,09,17,10.50
2017,05,15,09,18,10.50
2017,05,15,09,19,10.50
2017,05,15,09,20,10.50
2017,05,15,09,21,10.50
2017,05,15,09,22,10.50
2017,05,15,09,23,10.50
2017,05,15,09,24,10.40
2017,05,15,09,25,10.40
2017,05,15,09,26,10.40
2017,05,15,09,27,10.40
2017,05,15,09,28,10.40
2017,05,15,09,29,10.30
2017,05,15,09,30,10.30
2017,05,15,09,31,10.20
2017,05,15,09,32,10.20
2017,05,15,09,33,10.10
2017,05,15,09,34,10.10
2017,05,15,09,35,10.10
2017,05,15,09,36,10.00
2017,05,15,09,37,9.90
2017,05,15,09,38,9.90
2017,05,15,09,39,9.80
2017,05,15,09,40,9.70
2017,05,15,09,41,9.70
2017,05,15,09,42,9.60
2017,05,15,09,43,9.60
2017,05,15,09,44,9.60
2017,05,15,09,45,9.50
2017,05,15,09,46,9.50
2017,05,15,09,47,9.50
2017,05,15,09,48,9.50
2017,05,15,09,49,9.40
2017,05,15,09,50,9.40
2017,05,15,09,51,9.40
2017,05,15,09,52,9.40
2017,05,15,09,53,9.40
2017,05,15,09,54,9.40
2017,05,15,09,55,9.30
2017,05,15,09,56,9.30
2017,05,15,09,57,9.30
2017,05,15,09,58,9.30
2017,05,15,09,59,9.30
2017,05,15,10,00,9.30
2017,05,15,10,01,9.30
2017,05,15,10,02,9.30
2017,05,15,10,03,9.30
2017,05,15,10,04,9.30
2017,05,15,10,05,9.30
2017,05,15,10,06,9.20
2017,05,15,10,07,9.20
2017,05,15,10,08,9.20
2017,05,15,10,09,9.10
2017,05,15,10,10,9.10
2017,05,15,10,11,9.10
2017,05,15,10,12,9.10
2017,05,15,10,13,9.20
2017,05,15,10,14,9.20
2017,05,15,10,15,9.20
2017,05,15,10,16,9.20
2017,05,15,10,17,9.20
2017,05,15,10,18,9.20
2017,05,15,10,19,9.20
2017,05,15,10,20,9.20
2017,05,15,10,21,9.20
2017,05,15,10,22,9.20
2017,05,15,10,23,9.20
2017,05,15,10,24,9.20
2017,05,15,10,25,9.20
2017,05,15,10,26,9.20
2017,05,15,10,27,9.20
2017,05,15,10,28,9.20
2017,05,15,10,29,9.20
2017,05,15,10,30,9.20
2017,05,15,10,31,9.20
2017,05,15,10,32,9.20
2017,05,15,10,33,9.20
2017,05,15,10,34,9.20
2017,05,15,10,35,9.20
2017,05,15,10,36,9.20
2017,05,15,10,37,9.20
2017,05,15,10,38,9.20
2017,05,15,10,39,9.20
2017,05,15,10,40,9.20
2017,05,15,10,41,9.20
2017,05,15,10,42,9.20
2017,05,15,10,43,9.20
2017,05,15,10,44,9.20
2017,05,15,10,45,9.20
2017,05,15,10,46,9.20
2017,05,15,10,47,9.10
2017,05,15,10,48,9.20
2017,05,15,10,49,9.20
2017,05,15,10,50,9.20
2017,05,15,10,51,9.20
2017,05,15,10,52,9.20
2017,05,15,10,53,9.20
2017,05,15,10,54,9.20
2017,05,15,10,55,9.20
2017,05,15,10,56,9.20
2017,05,15,10,57,9.20
2017,05,15,10,58,9.30
2017,05,15,10,59,9.30
2017,05,15,11,00,9.30
2017,05,15,11,01,9.30
2017,05,15,11,02,9.30
2017,05,15,11,03,9.30
2017,05,15,11,04,9.30
2017,05,15,11,05,9.30
2017,05,15,11,06,9.30
2017,05,15,11,07,9.30
2017,05,15,11,08,9.30
2017,05,15,11,09,9.30
2017,05,15,11,10,9.30
2017,05,15,11,11,9.30
2017,05,15,11,12,9.30
2017,05,15,11,13,9.30
2017,05,15,11,14,9.30
2017,05,15,11,15,9.30
2017,05,15,11,16,9.20
2017,05,15,11,17,9.20
2017,05,15,11,18,9.20
2017,05,15,11,19,9.20
2017,05,15,11,20,9.20
2017,05,15,11,21,9.10
2017,05,15,11,22,9.10
2017,05,15,11,23,9.10
2017,05,15,11,24,9.10
2017,05,15,11,25,9.10
2017,05,15,11,26,9.10
2017,05,15,11,27,9.10
2017,05,15,11,28,9.10
2017,05,15,11,29,9.10
2017,05,15,11,30,9.10
2017,05,15,11,31,9.10
2017,05,15,11,32,9.10
2017,05,15,11,33,9.10
2017,05,15,11,34,9.10
2017,05,15,11,35,9.00
2017,05,15,11,36,9.10
2017,05,15,11,37,9.10
2017,05,15,11,38,9.10
2017,05,15,11,39,9.00
2017,05,15,11,40,9.00
2017,05,15,11,41,9.00
2017,05,15,11,42,9.00
2017,05,15,11,43,9.00
2017,05,15,11,44,9.00
2017,05,15,11,45,9.00
2017,05,15,11,46,9.00
2017,05,15,11,47,9.00
2017,05,15,11,48,9.00
2017,05,15,11,49,9.10
2017,05,15,11,50,9.10
2017,05,15,11,51,9.10
2017,05,15,11,52,9.10
2017,05,15,11,53,9.10
2017,05,15,11,54,9.10
2017,05,15,11,55,9.10
2017,05,15,11,56,9.10
2017,05,15,11,57,9.10
2017,05,15,11,58,9.10
2017,05,15,11,59,9.10
2017,05,15,12,00,9.10
2017,05,15,12,01,9.00
2017,05,15,12,02,9.00
2017,05,15,12,03,9.10
2017,05,15,12,04,9.00
2017,05,15,12,05,9.00
2017,05,15,12,06,9.00
2017,05,15,12,07,9.00
2017,05,15,12,08,9.00
2017,05,15,12,09,9.10
2017,05,15,12,10,9.10
2017,05,15,12,11,9.10
2017,05,15,12,12,9.10
2017,05,15,12,13,9.10
2017,05,15,12,14,9.10
2017,05,15,12,15,9.00
2017,05,15,12,16,9.00
2017,05,15,12,17,8.90
2017,05,15,12,18,8.90
2017,05,15,12,19,8.90
2017,05,15,12,20,8.90
2017,05,15,12,21,8.90
2017,05,15,12,22,8.90
2017,05,15,12,23,8.90
2017,05,15,12,24,8.90
2017,05,15,12,25,8.90
2017,05,15,12,26,8.90
2017,05,15,12,27,8.90
2017,05,15,12,28,8.80
2017,05,15,12,29,8.80
2017,05,15,12,30,8.80
2017,05,15,12,31,8.80
2017,05,15,12,32,8.80
2017,05,15,12,33,8.80
2017,05,15,12,34,8.80
2017,05,15,12,35,8.80
2017,05,15,12,36,8.80
2017,05,15,12,37,8.80
2017,05,15,12,38,8.80
2017,05,15,12,39,8.80
2017,05,15,12,40,8.80
2017,05,15,12,41,8.80
2017,05,15,12,42,8.70
2017,05,15,12,43,8.70
2017,05,15,12,44,8.70
2017,05,15,12,45,8.70
2017,05,15,12,46,8.70
2017,05,15,12,47,8.70
2017,05,15,12,48,8.70
2017,05,15,12,49,8.70
2017,05,15,12,50,8.70
2017,05,15,12,51,8.70
2017,05,15,12,52,8.70
2017,05,15,12,53,8.80
2017,05,15,12,54,8.80
2017,05,15,12,55,8.80
2017,05,15,12,56,8.80
2017,05,15,12,57,8.80
2017,05,15,12,58,8.80
2017,05,15,12,59,8.90
2017,05,15,13,00,8.90
2017,05,15,13,01,8.90
2017,05,15,13,02,8.80
2017,05,15,13,03,8.80
2017,05,15,13,04,8.80
2017,05,15,13,05,8.90
2017,05,15,13,06,8.90
2017,05,15,13,07,8.90
2017,05,15,13,08,8.90
2017,05,15,13,09,8.90
2017,05,15,13,10,8.90
2017,05,15,13,11,8.90
2017,05,15,13,12,8.90
2017,05,15,13,13,8.90
2017,05,15,13,14,8.80
2017,05,15,13,15,8.80
2017,05,15,13,16,8.80
2017,05,15,13,17,8.80
2017,05,15,13,18,8.90
2017,05,15,13,19,8.90
2017,05,15,13,20,8.90
2017,05,15,13,21,8.90
2017,05,15,13,22,8.90
2017,05,15,13,23,8.90
2017,05,15,13,24,8.90
2017,05,15,13,25,8.90
2017,05,15,13,26,8.90
2017,05,15,13,27,8.90
2017,05,15,13,28,8.90
2017,05,15,13,29,8.90
2017,05,15,13,30,9.00
2017,05,15,13,31,9.00
2017,05,15,13,32,9.00
2017,05,15,13,33,9.00
2017,05,15,13,34,9.00
2017,05,15,13,35,9.00
2017,05,15,13,36,9.00
2017,05,15,13,37,9.00
2017,05,15,13,38,9.00
2017,05,15,13,39,9.10
2017,05,15,13,40,9.10
2017,05,15,13,41,9.10
2017,05,15,13,42,9.20
2017,05,15,13,43,9.20
2017,05,15,13,44,9.20
2017,05,15,13,45,9.20
2017,05,15,13,46,9.20
2017,05,15,13,47,9.10
2017,05,15,13,48,9.10
2017,05,15,13,49,9.10
2017,05,15,13,50,9.10
2017,05,15,13,51,9.10
2017,05,15,13,52,9.10
2017,05,15,13,53,9.10
2017,05,15,13,54,9.10
2017,05,15,13,55,9.10
2017,05,15,13,56,9.10
2017,05,15,13,57,9.10
2017,05,15,13,58,9.20
2017,05,15,13,59,9.20
2017,05,15,14,00,9.20
2017,05,15,14,01,9.20
2017,05,15,14,02,9.20
2017,05,15,14,03,9.20
2017,05,15,14,04,9.20
2017,05,15,14,05,9.10
2017,05,15,14,06,9.10
2017,05,15,14,07,9.10
2017,05,15,14,08,9.10
2017,05,15,14,09,9.10
2017,05,15,14,10,9.10
2017,05,15,14,11,9.10
2017,05,15,14,12,9.10
2017,05,15,14,13,9.10
2017,05,15,14,14,9.10
2017,05,15,14,15,9.10
2017,05,15,14,16,9.10
2017,05,15,14,17,9.10
2017,05,15,14,18,9.10
2017,05,15,14,19,9.10
2017,05,15,14,20,9.10
2017,05,15,14,21,9.10
2017,05,15,14,22,9.10
2017,05,15,14,23,9.10
2017,05,15,14,24,9.10
2017,05,15,14,25,9.10
2017,05,15,14,26,9.10
2017,05,15,14,27,9.00
2017,05,15,14,28,9.00
2017,05,15,14,29,9.00
2017,05,15,14,30,9.00
2017,05,15,14,31,9.00
2017,05,15,14,32,9.00
2017,05,15,14,33,9.00
2017,05,15,14,34,9.00
2017,05,15,14,35,8.90
2017,05,15,14,36,9.00
2017,05,15,14,37,9.00
2017,05,15,14,38,9.00
2017,05,15,14,39,9.00
2017,05,15,14,40,9.00
2017,05,15,14,41,9.00
2017,05,15,14,42,9.10
2017,05,15,14,43,9.10
2017,05,15,14,44,9.10
2017,05,15,14,45,9.10
2017,05,15,14,46,9.10
2017,05,15,14,47,9.10
2017,05,15,14,48,9.10
2017,05,15,14,49,9.10
2017,05,15,14,50,9.20
2017,05,15,14,51,9.10
2017,05,15,14,52,9.10
2017,05,15,14,53,9.10
2017,05,15,14,54,9.10
2017,05,15,14,55,9.10
2017,05,15,14,56,9.10
2017,05,15,14,57,9.10
2017,05,15,14,58,9.00
2017,05,15,14,59,9.00
2017,05,15,15,00,9.00
2017,05,15,15,01,9.00
2017,05,15,15,02,9.00
2017,05,15,15,03,9.00
2017,05,15,15,04,9.00
2017,05,15,15,05,9.00
2017,05,15,15,06,9.00
2017,05,15,15,07,8.90
2017,05,15,15,08,9.00
2017,05,15,15,09,9.00
2017,05,15,15,10,9.00
2017,05,15,15,11,8.90
2017,05,15,15,12,8.90
2017,05,15,15,13,8.90
2017,05,15,15,14,8.90
2017,05,15,15,15,8.90
2017,05,15,15,16,8.90
2017,05,15,15,17,8.90
2017,05,15,15,18,8.90
2017,05,15,15,19,8.90
2017,05,15,15,20,8.90
2017,05,15,15,21,8.90
2017,05,15,15,22,8.90
2017,05,15,15,23,8.90
2017,05,15,15,24,8.90
2017,05,15,15,25,8.90
2017,05,15,15,26,8.90
2017,05,15,15,27,8.90
2017,05,15,15,28,8.90
2017,05,15,15,29,8.90
2017,05,15,15,30,8.80
2017,05,15,15,31,8.80
2017,05,15,15,32,8.80
2017,05,15,15,33,8.80
2017,05,15,15,34,8.70
2017,05,15,15,35,8.80
2017,05,15,15,36,8.80
2017,05,15,15,37,8.80
2017,05,15,15,38,8.80
2017,05,15,15,39,8.80
2017,05,15,15,40,8.80
2017,05,15,15,41,8.80
2017,05,15,15,42,8.80
2017,05,15,15,43,8.80
2017,05,15,15,44,8.80
2017,05,15,15,45,8.80
2017,05,15,15,46,8.80
2017,05,15,15,47,8.80
2017,05,15,15,48,8.70
2017,05,15,15,49,8.70
2017,05,15,15,50,8.70
2017,05,15,15,51,8.70
2017,05,15,15,52,8.70
2017,05,15,15,53,8.80
2017,05,15,15,54,8.80
2017,05,15,15,55,8.80
2017,05,15,15,56,8.80
2017,05,15,15,57,8.80
2017,05,15,15,58,8.80
2017,05,15,15,59,8.80
2017,05,15,16,00,8.80
2017,05,15,16,01,8.80
2017,05,15,16,02,8.80
2017,05,15,16,03,8.80
2017,05,15,16,04,8.80
2017,05,15,16,05,8.80
2017,05,15,16,06,8.80
2017,05,15,16,07,8.80
2017,05,15,16,08,8.80
2017,05,15,16,09,8.80
2017,05,15,16,10,8.80
2017,05,15,16,11,8.80
2017,05,15,16,12,8.80
2017,05,15,16,13,8.80
2017,05,15,16,14,8.90
2017,05,15,16,15,8.90
2017,05,15,16,16,8.90
2017,05,15,16,17,8.90
2017,05,15,16,18,8.90
2017,05,15,16,19,8.90
2017,05,15,16,20,8.90
2017,05,15,16,21,8.90
2017,05,15,16,22,8.90
2017,05,15,16,23,8.90
2017,05,15,16,24,8.90
2017,05,15,16,25,8.90
2017,05,15,16,26,9.00
2017,05,15,16,27,9.00
2017,05,15,16,28,9.00
2017,05,15,16,29,8.90
2017,05,15,16,30,8.90
2017,05,15,16,31,8.90
2017,05,15,16,32,8.90
2017,05,15,16,33,8.90
2017,05,15,16,34,8.90
2017,05,15,16,35,8.90
2017,05,15,16,36,8.90
2017,05,15,16,37,8.90
2017,05,15,16,38,9.00
2017,05,15,16,39,9.00
2017,05,15,16,40,9.00
2017,05,15,16,41,9.00
2017,05,15,16,42,9.10
2017,05,15,16,43,9.10
2017,05,15,16,44,9.10
2017,05,15,16,45,9.10
2017,05,15,16,46,9.10
2017,05,15,16,47,9.10
2017,05,15,16,48,9.10
2017,05,15,16,49,9.10
2017,05,15,16,50,9.10
2017,05,15,16,51,9.10
2017,05,15,16,52,9.10
2017,05,15,16,53,9.20
2017,05,15,16,54,9.20
2017,05,15,16,55,9.20
2017,05,15,16,56,9.20
2017,05,15,16,57,9.20
2017,05,15,16,58,9.20
2017,05,15,16,59,9.20
2017,05,15,17,00,9.20
2017,05,15,17,01,9.20
2017,05,15,17,02,9.20
2017,05,15,17,03,9.20
2017,05,15,17,04,9.20
2017,05,15,17,05,9.20
2017,05,15,17,06,9.20
2017,05,15,17,07,9.20
2017,05,15,17,08,9.20
2017,05,15,17,09,9.20
2017,05,15,17,10,9.20
2017,05,15,17,11,9.20
2017,05,15,17,12,9.20
2017,05,15,17,13,9.20
2017,05,15,17,14,9.20
2017,05,15,17,15,9.20
2017,05,15,17,16,9.20
2017,05,15,17,17,9.20
2017,05,15,17,18,9.10
2017,05,15,17,19,9.10
2017,05,15,17,20,9.10
2017,05,15,17,21,9.10
2017,05,15,17,22,9.10
2017,05,15,17,23,9.10
2017,05,15,17,24,9.10
2017,05,15,17,25,9.00
2017,05,15,17,26,9.00
2017,05,15,17,27,9.00
2017,05,15,17,28,9.00
2017,05,15,17,29,9.00
2017,05,15,17,30,9.00
2017,05,15,17,31,9.00
2017,05,15,17,32,9.00
2017,05,15,17,33,9.00
2017,05,15,17,34,9.00
2017,05,15,17,35,9.00
2017,05,15,17,36,9.00
2017,05,15,17,37,9.00
2017,05,15,17,38,9.00
2017,05,15,17,39,9.00
2017,05,15,17,40,9.00
2017,05,15,17,41,9.00
2017,05,15,17,42,8.90
2017,05,15,17,43,8.90
2017,05,15,17,44,8.90
2017,05,15,17,45,8.90
2017,05,15,17,46,8.90
2017,05,15,17,47,9.00
2017,05,15,17,48,8.90
2017,05,15,17,49,8.90
2017,05,15,17,50,8.90
2017,05,15,17,51,8.90
2017,05,15,17,52,8.90
2017,05,15,17,53,8.90
2017,05,15,17,54,8.90
2017,05,15,17,55,8.80
2017,05,15,17,56,8.80
2017,05,15,17,57,8.80
2017,05,15,17,58,8.90
2017,05,15,17,59,8.90
2017,05,15,18,00,8.90
2017,05,15,18,01,8.90
2017,05,15,18,02,8.90